TimeEDT,TemperatureF,Dew PointF,Humidity,Sea Level PressureIn,VisibilityMPH,Wind Direction,Wind SpeedMPH,Gust SpeedMPH,PrecipitationIn,Events,Conditions,WindDirDegrees,DateUTC
12:58 AM,62.8,55.0,76,29.87,10.0,SW,2.3,-,N/A,,Mostly Cloudy,230,2013-09-05 04:58:00
1:58 AM,63.3,54.0,71,29.87,10.0,SW,3.5,-,N/A,,Mostly Cloudy,220,2013-09-05 05:58:00
2:58 AM,64.0,55.0,73,29.87,10.0,West,4.6,-,N/A,,Mostly Cloudy,280,2013-09-05 06:58:00
3:58 AM,63.1,54.9,74,29.86,10.0,NW,1.2,-,N/A,,Mostly Cloudy,310,2013-09-05 07:58:00
4:58 AM,62.1,55.9,80,29.87,10.0,West,4.6,-,N/A,,Overcast,280,2013-09-05 08:58:00
5:20 AM,62.6,55.4,77,29.86,8.0,WNW,4.6,-,N/A,Rain,Light Rain,290,2013-09-05 09:20:00
5:58 AM,62.8,56.7,80,29.87,10.0,West,3.5,-,0.01,,Overcast,280,2013-09-05 09:58:00
6:25 AM,62.6,57.2,82,29.87,7.0,WNW,3.5,-,N/A,Rain,Light Rain,300,2013-09-05 10:25:00
6:37 AM,62.6,59.0,88,29.87,10.0,WNW,3.5,-,N/A,,Mostly Cloudy,300,2013-09-05 10:37:00
6:58 AM,61.9,58.6,89,29.89,10.0,NW,3.5,-,0.00,,Mostly Cloudy,310,2013-09-05 10:58:00
7:58 AM,63.5,59.4,86,29.92,10.0,North,5.8,-,N/A,,Mostly Cloudy,350,2013-09-05 11:58:00
8:36 AM,64.4,60.8,88,29.92,10.0,NNE,4.6,-,N/A,,Overcast,30,2013-09-05 12:36:00
8:43 AM,64.4,60.8,88,29.93,10.0,North,6.9,-,N/A,,Overcast,10,2013-09-05 12:43:00
8:58 AM,63.1,58.8,86,29.94,10.0,North,10.4,17.3,N/A,,Overcast,10,2013-09-05 12:58:00
9:24 AM,60.8,55.4,82,29.95,10.0,NNE,12.7,21.9,N/A,,Overcast,30,2013-09-05 13:24:00
9:58 AM,61.3,55.9,82,29.97,10.0,NNE,11.5,-,N/A,,Overcast,20,2013-09-05 13:58:00
10:56 AM,62.6,53.6,72,29.97,10.0,North,8.1,-,N/A,,Mostly Cloudy,10,2013-09-05 14:56:00
10:58 AM,62.1,53.2,73,29.97,10.0,NNE,9.2,-,N/A,,Overcast,20,2013-09-05 14:58:00
11:55 AM,63.7,53.8,70,29.98,10.0,ENE,6.9,-,N/A,,Mostly Cloudy,60,2013-09-05 15:55:00
12:58 PM,62.6,53.6,72,29.98,10.0,East,4.6,-,N/A,,Mostly Cloudy,90,2013-09-05 16:58:00
1:58 PM,64.0,52.2,65,29.98,10.0,East,5.8,-,N/A,,Mostly Cloudy,90,2013-09-05 17:58:00
2:58 PM,65.1,51.4,61,29.98,10.0,ESE,10.4,-,N/A,,Mostly Cloudy,120,2013-09-05 18:58:00
3:58 PM,66.0,50.9,58,30.00,10.0,SSE,12.7,-,N/A,,Mostly Cloudy,150,2013-09-05 19:58:00
4:58 PM,62.8,50.7,65,30.01,10.0,SSE,5.8,-,N/A,,Mostly Cloudy,160,2013-09-05 20:58:00
5:58 PM,62.6,51.4,67,30.03,10.0,SE,5.8,-,N/A,,Partly Cloudy,140,2013-09-05 21:58:00
6:58 PM,62.1,49.8,64,30.04,10.0,NW,4.6,-,N/A,,Partly Cloudy,320,2013-09-05 22:58:00
7:58 PM,57.7,41.5,55,30.07,10.0,NW,6.9,-,N/A,,Partly Cloudy,320,2013-09-05 23:58:00
8:58 PM,56.1,41.7,58,30.09,10.0,NW,5.8,-,N/A,,Clear,320,2013-09-06 00:58:00
9:58 PM,52.9,42.8,69,30.12,10.0,NW,6.9,-,N/A,,Clear,310,2013-09-06 01:58:00
10:58 PM,51.1,43.7,76,30.13,10.0,North,3.5,-,N/A,,Clear,350,2013-09-06 02:58:00
11:58 PM,52.5,40.6,64,30.14,10.0,North,8.1,-,N/A,,Clear,350,2013-09-06 03:58:00